Regional Weather Roundup
Issued by NWS

Home | Current Version | Previous Version | Text Only | Print | Product List | Glossary Off
Versions: 1 2 3 4 5 6 7 8 9 10 11 12 13 14 15 16 17 18 19 20 21 22 23 24 25 26 27 28 29 30 31 32 33 34 35 36 37 38 39 40 41 42 43 44 45 46 47 48 49 50

000
ASUS43 KLSX 190107
RWRMO

WEATHER SUMMARY FOR MISSOURI
NATIONAL WEATHER SERVICE SPRINGFIELD MO
800 PM CDT FRI APR 18 2014

NOTE: "FAIR" INDICATES FEW OR NO CLOUDS BELOW 12,000 FEET WITH NO
       SIGNIFICANT WEATHER AND/OR OBSTRUCTIONS TO VISIBILITY.
       CURRENT SKY AND/OR WEATHER CONDITIONS ARE NOT AVAILABLE FOR
       CHILLICOTHE AND FARMINGTON.

MOZ001>031-035>038-043-044-053-054-190200-
...NORTHERN AND WESTERN MISSOURI...

CITY           SKY/WX    TMP DP  RH WIND       PRES   REMARKS
KANSAS CTY INT PTCLDY    60  39  45 SE9       30.14F
KANSAS C DTWN  CLEAR     66  40  38 SE5       30.14F
LEE`S SUMMIT   CLEAR     64  41  42 SE3       30.16F
ST JOSEPH      CLEAR     61  39  44 SE9       30.13F
CHILLICOTHE      N/A     64  39  39 SE5       30.18S
KIRKSVILLE     CLEAR     58  37  45 SE6       30.20F

$$
MOZ066>068-077>081-088>096-101>105-190200-
...SOUTHWEST MISSOURI...

CITY           SKY/WX    TMP DP  RH WIND       PRES   REMARKS
SPRINGFIELD    CLEAR     67  39  35 E3        30.15S
JOPLIN         CLEAR     66  40  38 VRB5      30.14S

$$
MOZ032>034-039>042-045>050-055>058-069>072-190200-
...CENTRAL MISSOURI...

CITY           SKY/WX    TMP DP  RH WIND       PRES   REMARKS
COLUMBIA       CLEAR     63  41  44 NE6       30.19S
JEFFERSON CITY CLEAR     67  38  34 E3        30.18F
ROLLA          CLEAR     59  42  53 NE6       30.18R
SEDALIA        CLEAR     64  43  46 E6        30.18S
WHITEMAN AFB   CLEAR     62  44  50 E5        30.17S
OSAGE BEACH    CLEAR     63  37  39 NE5       30.19S

$$
MOZ051-052-059>065-190200-
...EAST CENTRAL MISSOURI...

CITY           SKY/WX    TMP DP  RH WIND       PRES   REMARKS
ST LOUIS INTL  PTCLDY    65  40  39 E7        30.21S
SPIRIT OF STL  CLEAR     58  42  55 CALM      30.20S
ST CHARLES     CLEAR     64  39  39 NE5       30.20S

$$
MOZ072>076-082>087-097>100-106>115-190200-
...SOUTH CENTRAL AND SOUTHEAST MISSOURI...

CITY           SKY/WX    TMP DP  RH WIND       PRES   REMARKS
CAPE GIRARDEAU CLEAR     62  44  51 NE7       30.18S
FARMINGTON     CLEAR     57  43  58 E6        30.22S
POPLAR BLUFF   CLEAR     67  43  41 E3        30.16S
WEST PLAINS    PTCLDY    67  38  34 SE8       30.17S

$$



USA.gov is the U.S. government's official web portal to all federal, state and local government web resources and services.